Regional Weather Roundup
Issued by NWS Wakefield, VA

Home | Current Version | Previous Version | Text Only | Print | Product List | Glossary Off
Versions: 1 2 3 4 5 6 7 8 9 10 11 12 13 14 15 16 17 18 19 20 21 22 23 24 25 26 27 28 29 30 31 32 33 34 35 36 37 38 39 40 41 42 43 44 45 46 47 48 49 50

000
ASUS41 KAKQ 172315
RWRAKQ

REGIONAL WEATHER ROUNDUP
NATIONAL WEATHER SERVICE WAKEFIELD VA
700 PM EDT THU AUG 17 2017

Note: "fair" indicates few or no clouds below 12,000 feet with no
significant weather and/or obstructions to visibility. * = Denotes
station may not report precipitation (e.g., rain,snow,etc.),
thunder or fog.

VAZ042-051-052>054-056-180000-
NORTHERN VIRGINIA

CITY           SKY/WX    TMP DP  RH WIND       PRES   REMARKS
WASH NATIONAL  MOSUNNY   86  75  69 S12       29.94S HX  95
DULLES         MOSUNNY   84  75  74 S10G20    29.93S
FORT BELVOIR   SUNNY     84  75  73 SE8       29.93S
QUANTICO       SUNNY     85  76  74 S14       29.94R
FREDERICKSBRG* SUNNY     86  74  69 SE8       29.92F
STAFFORD*      SUNNY     83  72  70 SE7       29.97F
WARRENTON      SUNNY     84  71  63 SE6       29.93S
CULPEPER*      SUNNY     87  74  65 S6        29.94R
MANASSAS*      MOSUNNY   83  75  77 S9        29.93R
LEESBURG*      MOSUNNY   88  77  70 S10       29.93F HX 100
WINCHESTER     TSTM      81  73  78 E5        29.93R
FRONT ROYAL*   CLOUDY    84  75  74 S6        29.91S
LURAY*         MOCLDY    88  72  58 CALM      29.93S
$$

VAZ048-049-060>072-079>083-180000-
CENTRAL AND SOUTH CENTRAL VIRGINIA

CITY           SKY/WX    TMP DP  RH WIND       PRES   REMARKS
RICHMOND       MOSUNNY   84  73  69 S7        29.95S
CHESTERFIELD*  FAIR      84  75  74 S9        29.95F
PETERSBURG*    MOSUNNY   83  73  71 S3        29.96F
HANOVER        SUNNY     85  71  63 VRB5      29.95F
TAPPAHANNOCK*  SUNNY     86  65  48 S6        29.96S
QUINTON*       FAIR      84  78  83 SE3       29.94F
CHARLOTTSVILLE MOSUNNY   87  75  67 SE9       29.92F HX  96
GORDONSVILLE*  MOCLDY    85  77  76 S3        29.93S HX  95
ORANGE*        SUNNY     84  73  70 SE5       29.93S
LOUISA*        SUNNY     84  73  70 S7        29.94F
BUMPASS*       FAIR      85  74  71 S3        29.95R
FARMVILLE*     PTSUNNY   83  73  73 S5        29.94S
CREWE*         FAIR      83  75  76 S5        29.95S
FORT PICKETT*  FAIR     N/A N/A N/A S5        29.95F
CHASE CITY*    FAIR      84  79  85 S5        29.96S HX  95
CLARKSVILLE*   FAIR      81  73  78 S5        29.95F
SOUTH HILL*    CLOUDY    82  77  85 S6        30.01S
LAWRENCEVILLE* FAIR      82  76  82 S5        29.95F
EMPORIA*       CLOUDY    81  77  89 E6        29.96F
$$

VAZ088>098-180000-
SOUTHEAST VIRGINIA

CITY           SKY/WX    TMP DP  RH WIND       PRES   REMARKS
NORFOLK        MOCLDY    84  72  67 S9        29.96F
VIRGINIA BEACH MOCLDY    80  72  76 SE10      29.96F
NORFOLK NAVAL  PTCLDY    84  72  67 S7        29.97F
WEST POINT*    SUNNY     85  72  64 SE7       29.96F
SALUDA*        FAIR      82  72  73 SE7       29.96S
NEWPORT NEWS   PTCLDY    85  66  53 S7        29.95F
LANGLEY AFB    NOT AVBL
FORT EUSTIS    NOT AVBL
WILLIAMSBURG*  MOSUNNY   88  73  62 S7        29.97S HX  96
HR EXEC AP*    FAIR      82  72  69 SE6       29.93F
FRANKLIN*      CLOUDY    81  73  76 CALM      29.96F
US460-WAKEFLD  MOSUNNY   82  74  76 S3        29.96F
$$

VAZ020-022-025-037-045-180000-
WEST CENTRAL AND SOUTHWEST VIRGINIA

CITY           SKY/WX    TMP DP  RH WIND       PRES   REMARKS
STAUNTON*      PTSUNNY   84  73  69 SE5       29.97S
WAYNESBORO*    CLOUDY    84  73  69 CALM      29.98S
HOT SPRINGS VA CLOUDY    75  63  64 SW3       30.14R
LYNCHBURG      CLOUDY    84  73  69 CALM      29.96S
DANVILLE       CLOUDY    88  76  67 CALM      29.94S HX  99
SOUTH BOSTON*  FAIR      84  74  70 SE6       29.95S
MARTINSVILLE   MOSUNNY   85  75  71 CALM      29.99S
ROANOKE        CLOUDY    87  72  60 E10       29.98S
BLACKSBURG     CLOUDY    81  73  78 S7        30.06S
DUBLIN*        PTSUNNY   83  72  68 S8        30.04F
MARION*        MOSUNNY   82   0   4 SW5       30.09F
HILLSVILLE*    MOSUNNY   76  71  82 CALM      30.08S
RICHLANDS*     MOCLDY    76  63  65 NW3       30.08F
WISE*          CLOUDY    77  68  73 SW7       30.08F
ABINGDON*      MOSUNNY   83  71  66 N7        30.05R
$$

MDZ021>025-VAZ099-100-180000-
SOUTHERN MARYLAND AND THE DELMARVA PENINSULA

CITY           SKY/WX    TMP DP  RH WIND       PRES   REMARKS
PATUXENT RIVER PTCLDY    82  71  69 S9        29.95S
BAY BRIDGE APT CLOUDY    79  73  83 SE6       29.95F
LEONARDTOWN    MOSUNNY   81  70  69 SE5       29.97S
DOVER          PTCLDY    81  73  78 S7        29.95F
GEORGETOWN     CLOUDY    82  72  71 S9        29.98R
EASTON         MOCLDY    82  73  74 S7        30.00R
CAMBRIDGE      CLOUDY    82  73  74 S6G14     29.96S
SALISBURY      CLOUDY    80  72  76 S6        29.97S
OCEAN CITY     CLEAR     79  71  76 S6        29.99S
WALLOPS ISLAND CLOUDY    78  74  87 S10       29.99S
ACCOMACK*      CLOUDY    79  72  80 S7        29.98R
$$

NCZ012>017-030>032-180000-
NORTH CENTRAL AND EASTERN NORTH CAROLINA

CITY           SKY/WX    TMP DP  RH WIND       PRES   REMARKS
ROANOKE RAPIDS FAIR      79  77  94 CALM      29.95F
RALEIGH        CLOUDY    84  75  74 S12       29.97F
ELIZABETH CITY CLOUDY    82  76  81 SE8       29.98F
AHOSKIE*         N/A     78  77  97 CALM      29.96F
EDENTON*       CLOUDY    85  76  73 CALM      29.97F
CURRITUCK*     CLOUDY    81  73  76 SE3       29.99F
KILL DEVIL HLS CLOUDY    80  72  78 CALM      29.99S
MANTEO         CLOUDY    81  71  71 S7        30.00S
CAPE HATTERAS  CLEAR     84  76  76 S7        30.01R
TARBORO*       NOT AVBL
GOLDSBORO      LGT RAIN  78  78 100 SW6       29.97R
WASHINGTON     LGT RAIN  80  78  91 CALM      29.97S
GREENVILLE     CLOUDY    81  77  89 CALM      29.99F
NEW BERN       CLOUDY    83  78  85 S6        30.00S
WILMINGTON     CLOUDY    81  77  88 SW6       29.99S
$$

VAZ048-180000-
ELSEWHERE

CITY           SKY/WX    TMP DP  RH WIND       PRES   REMARKS
HARRISBURG PA  CLOUDY    83  75  77 SE10      29.91S
BALTIMORE      PTSUNNY   79  76  90 SE9       29.94S
ANNAPOLIS      MOSUNNY   80  77  90 SE9       29.95S
ANDREWS AFB    SUNNY     82  76  82 SE6       29.94S
PHILADELPHIA   MOCLDY    84  66  54 S13       29.96R
HENDERSON NC   CLOUDY    78  72  80 SE5       29.97S
GREENSBORO     PTSUNNY   89  73  59 W7        29.96S HX  97
ROCKY MOUNT    CLOUDY    80  76  87 S5        29.97F
$$

VAZ100-180000-
MARINE

STATION/POSITION TIME  TEMP    WIND        PRES    WAVE   SWELL
                       AIR SEA DIR/SP/G            HT/PER HT/PER
                 (UTC) (F)     (DEG/KT/KT) (MB)    (FT/S) (FT/S)
BRANDYWINE LGT   2248          180/ 16/ 18 1015.2R
CAPE MAY NJ      2248   77 79  160/ 10/ 14 1014.5R
LEWES DE         2248          150/  6/  8 1014.7R
15NM E FENWICK I 2250   78 78  180/ 12/ 14 1015.8R   2/ 7   2/ 7
OCEAN-CITY-INLET 2248   78 77  210/ 12/ 14 1015.8S
WACHAPREAGUE VA  2248   80 84  180/ 11/ 13 1015.3R
THOMAS POINT MD  2300   80 80  160/ 11/ 14   N/A
GOOSES REEF MD   2300   82 80  170/ 16/ 17 1014.8    2/ 3
COVE POINT MD    2248   81     180/ 18/ 20 1015.0S
SOLOMONS ISLAND  2248   83 82  170/ 12/ 15   N/A
BISHOPS HEAD MD  2248   82 85  160/ 14/ 17 1014.8R
PINEY POINT MD   2248          190/ 14/ 16   N/A
POTOMAC MD       2300   83 81  180/ 14/ 16 1013.8    1/ 3
CAMBRIDGE MD     2248   83 83              1015.5R
LEWISETTA VA     2248   83 85  180/  7/  9 1014.3R
RAPPAHANNOCK LGT 2248          140/ 14/ 16 1015.3F
STINGRAY PT      2300   81 81  180/ 16/ 19 1014.7    2/ 3
YORK RVR RNG VA  2248   81     160/ 16/ 18 1014.7F
YORKTOWN VA      2248   85 81              1014.0
JAMESTOWN VA     2300      84  190/  8/ 12   N/A     0
DOMINION TERM VA 2248   83     150/  9/ 11 1014.5F
KIPTOPEKE VA     2248          160/ 14/ 17   N/A
CHES BAY BRIDGE  2248   81 77  160/  7/ 11 1014.5F
CAPE HENRY VA    2248   79     150/ 12/ 16   N/A
WILLOUBY STN VA  2248          150/ 13/ 14   N/A
S CRANEY ISL VA  2248   84     140/  9/ 11 1014.3F
CAPE HENRY BUOY  2300      79                N/A     2/ 7
1ST LANDING BUOY 2300   80 79              1014.5    1/ 3
64NM E OF VA BCH 2250   78 80  160/  6/  8 1016.5S   2/ 8   2/ 8
DUCK PIER NC     2248   79 75  130/ 11/ 13 1015.0F
44100 DUCK FRF   2205      81                N/A     2/ 8
44056 DUCK FRF   2300      80                N/A     2/ 8
OREGON INLET NC  2242   81 86  130/  4/  8 1015.8S
HATTERAS NC      2248   83 85  170/  7/  9 1016.1R
DIAMOND SHLS NC  2250   83 87  160/  8/ 10 1015.9R   2/ 8   2/ 8
CAPE LOOKOUT NC  2300   83     150/  7/  8 1015.4R
$$



USA.gov is the U.S. government's official web portal to all federal, state and local government web resources and services.